Weather History for Flint, MI

Change the Weather History Date:

Monday, April 22, 2013

  Actual Average Record
Temperature  
Mean Temperature 48 °F 49 °F  
Max Temperature 63 °F 60 °F 84 °F (1980)
Min Temperature 32 °F 38 °F 20 °F (1927)
Degree Days  
Heating Degree Days 17 16  
Month to date heating degree days 493 444  
Since 1 July heating degree days 6159 6489  
Cooling Degree Days 0 0  
Month to date cooling degree days 0 0  
Year to date cooling degree days 0 0  
Moisture  
Dew Point 28 °F    
Average Humidity 50    
Maximum Humidity 76    
Minimum Humidity 23    
Precipitation  
Precipitation 0.00 in 0.09 in 1.75 in (1999)
Month to date precipitation 5.30 2.13  
Year to date precipitation 11.53 7.15  
Snow  
Snow 0.00 in 0.10 in 0.60 in ()
Month to date snowfall 0.2 2.1  
Since 1 July snowfall 43.8 47.2  
Snow Depth 0.00 in    
Sea Level Pressure  
Sea Level Pressure 30.34 in    
Wind  
Wind Speed 7 mph (SE)    
Max Wind Speed 15 mph    
Max Gust Speed 17 mph    
Visibility 10 miles    
Events      
T = Trace of Precipitation, MM = Missing Value Source: NWS Daily Summary

Daily Weather History Graph

Daily Weather History Graph

Search for Another Location

Airport:

Trip Planner

Search our weather history database for the weather conditions in past years. The results will help you decide how hot, cold, wet, or windy it might be!

Date:

Astronomy

Apr. 22, 2013 Rise Set
Actual Time 6:41 AM EDT 8:25 PM EDT
Civil Twilight 6:11 AM EDT 8:56 PM EDT
Nautical Twilight 5:35 AM EDT 9:32 PM EDT
Astronomical Twilight 4:55 AM EDT 10:12 PM EDT
Moon 5:09 PM EDT (4/22) 4:41 AM EDT (4/22)
Length of Visible Light 14h 44m
Length of Day
13h 44m
Waxing Gibbous, 87% of the Moon is Illuminated
Apr 22
Waxing Gibbous
Apr 25
Full
May 2
Last Quarter
May 9
New
May 18
First Quarter

Hourly Weather History & Observations

Time (EDT) Temp. Windchill Dew Point Humidity Pressure Visibility Wind Dir Wind Speed Gust Speed Precip Events Conditions
12:53 AM 36.0 °F 31.1 °F 24.1 °F 62% 30.48 in 10.0 mi SE 5.8 mph - N/A   Clear
1:53 AM 34.0 °F 28.0 °F 23.0 °F 64% 30.47 in 10.0 mi SSE 6.9 mph - N/A   Clear
2:53 AM 35.1 °F 32.2 °F 24.1 °F 64% 30.44 in 10.0 mi SSE 3.5 mph - N/A   Clear
3:53 AM 35.1 °F 29.3 °F 25.0 °F 67% 30.42 in 10.0 mi SE 6.9 mph - N/A   Clear
4:53 AM 35.1 °F 28.6 °F 27.0 °F 72% 30.41 in 10.0 mi SSE 8.1 mph - N/A   Clear
5:53 AM 34.0 °F 28.0 °F 27.0 °F 75% 30.41 in 10.0 mi SE 6.9 mph - N/A   Clear
6:53 AM 33.1 °F - 27.0 °F 78% 30.41 in 10.0 mi Calm Calm - N/A   Clear
7:53 AM 37.0 °F - 30.9 °F 79% 30.42 in 9.0 mi Calm Calm - N/A   Clear
8:53 AM 43.0 °F 39.5 °F 33.1 °F 68% 30.42 in 10.0 mi SSE 5.8 mph - N/A   Clear
9:53 AM 48.9 °F - 30.9 °F 50% 30.40 in 10.0 mi SSE 10.4 mph - N/A   Clear
10:53 AM 53.1 °F - 30.0 °F 41% 30.39 in 10.0 mi South 5.8 mph - N/A   Clear
11:53 AM 55.9 °F - 28.0 °F 34% 30.38 in 10.0 mi Variable 5.8 mph - N/A   Clear
12:53 PM 57.9 °F - 26.1 °F 30% 30.35 in 10.0 mi Variable 4.6 mph - N/A   Clear
1:53 PM 60.1 °F - 28.0 °F 30% 30.32 in 10.0 mi SSE 10.4 mph - N/A   Clear
2:53 PM 62.1 °F - 27.0 °F 26% 30.29 in 10.0 mi SE 11.5 mph - N/A   Clear
3:53 PM 62.1 °F - 25.0 °F 24% 30.27 in 10.0 mi Variable 3.5 mph - N/A   Clear
4:53 PM 62.1 °F - 25.0 °F 24% 30.25 in 10.0 mi Variable 4.6 mph - N/A   Clear
5:53 PM 62.1 °F - 28.9 °F 29% 30.23 in 10.0 mi SSE 11.5 mph - N/A   Clear
6:53 PM 60.1 °F - 30.9 °F 33% 30.21 in 10.0 mi SE 15.0 mph - N/A   Clear
7:53 PM 55.9 °F - 30.9 °F 39% 30.21 in 10.0 mi SE 8.1 mph - N/A   Clear
8:53 PM 52.0 °F - 28.9 °F 41% 30.21 in 10.0 mi ESE 9.2 mph - N/A   Clear
9:53 PM 48.0 °F - 28.9 °F 48% 30.21 in 10.0 mi ESE 8.1 mph - N/A   Clear
10:53 PM 48.9 °F - 32.0 °F 52% 30.22 in 10.0 mi SE 8.1 mph - N/A   Clear
11:53 PM 48.9 °F - 33.1 °F 54% 30.20 in 10.0 mi SE 9.2 mph - N/A   Clear